Notices

What's New in latest Release from April 7th, 2021:

- Updated Glossary, including Speed of Maximum Gust, and Total Hourly Precipitation

- Updated national and regional climate services offices contacts and prices information

- Addition of station inventory lists for 1981-2010, 1971-2000, and 1961-1990 Normals.

If you haven't already, please take our survey and provide feedback about our website: https://eccc.sondage-survey.ca/f/LanguageSelection.aspx?s=442ca660-fcf1-47c0-95a9-59707d6fd709

Hourly Data Report for October 23, 2004

SHERBROOKE A
QUEBEC

45°26'00.000" N
71°41'00.000" W
241.40 m
7028124
71610
YSC

Download Data

Hourly Data (October 2004)
Hourly Data Report for October 23, 2004
TIME
LST
Temp Definition
°C
Dew Point Definition
°C
Rel Hum Definition
%
Precip. Amount Definition
mm

Wind Dir Definition
10's deg

Wind Spd Definition
km/h
Visibility Definition
km
Stn Press Definition
kPa
Hmdx Definition


Wind Chill Definition


Weather Definition


00:00 -0.4 -3.0 83   10 7 15.0 99.88   -3  
01:00 -0.6 -2.9 84   11 11 15.0 99.90   -4  
02:00 -2.1 -4.0 87   8 6 15.0 99.89   -4  
03:00 -1.8 -3.7 87   8 11 15.0 99.85   -6  
04:00 -3.0 -4.9 87   10 7 15.0 99.86   -6  
05:00 -2.4 -4.3 87   10 9 15.0 99.86   -6  
06:00 -3.7 -5.7 86   11 7 15.0 99.85   -7  
07:00 -3.0 -4.8 87   9 9 24.1 99.85   -7 Mainly Clear
08:00 -1.9 -3.7 87   9 11 24.1 99.87   -6 Mainly Clear
09:00 2.6 -0.4 81   6 11 24.1 99.86     Mainly Clear
10:00 5.9 -0.7 63   7 9 24.1 99.79     Mainly Clear
11:00 6.6 -1.1 58   2 9 24.1 99.67     Mainly Clear
12:00 9.0 -0.5 51   9 9 24.1 99.59     Mainly Clear
13:00 9.6 -0.6 49   13 9 24.1 99.52     Mainly Clear
14:00 10.2 -0.6 47   32 4 24.1 99.47     Mainly Clear
15:00 10.4 -0.3 47   33 6 24.1 99.43     Mainly Clear
16:00 9.8 -0.5 49   3 7 24.1 99.35     Mainly Clear
17:00 7.9 -0.5 55   6 6 15.0 99.26      
18:00 3.0 -1.3 73   5 6 15.0 99.26      
19:00 3.5 -0.9 73   5 9 15.0 99.27      
20:00 1.6 -1.3 81   9 9 15.0 99.26      
21:00 0.4 -2.0 84   10 7 15.0 99.24      
22:00 -0.2 -2.7 83   7 7 15.0 99.23   -3  
23:00 -2.1 -3.5 90   11 7 15.0 99.14   -5  

Notes on Data Quality.

Legend

  • E = Estimated
  • M = Missing
  • NA = Not Available*
  • [empty] = Indicates an unobserved value
Date modified: